Location: Newark
(43.0000°N, 1.6781°W)
Time: 06:17:14
(UTC+00:00)

Vanguard 1 - Pass Details

Date: 07 December 2021
Orbit: 652 x 3830 km, 34.2° (Epoch: 16 January)

Event Time Altitude Azimuth Distance (km) Brightness Sun altitude
Exits shadow 04:14:58 44° 245° (WSW) 4,319 12.8 -33.8°
Maximum altitude 04:20:51 52° 207° (SSW) 3,730 12.7 -32.7°
Drops below altitude 10° 04:35:19 10° 136° (SE) 4,830 14.1 -30.1°
Sets 04:38:27 0° 131° (SE) 5,479 14.6 -29.5°
